Weather in Uhta

Russia / Komi Republic     63°33′45″N   53°41′02″E
temp.,
°C
wind,
m/s
gust,
m/s
humid.,
%
clouds,
%
prec.,
mm/h
press.,
hPa
HPBL,
m
14 june, mon
mon1400:00+15s248297 0.0 101074
03:00+15ssw288763 0.0 1010228
06:00+20sw366549 0.0 1010573
09:00+24sw574893 0.0 10091866
12:00+24sw4846100 0.0 10072021
15:00+21sw396387 0.4 1007413
18:00+21sw376174 0.2 1006249
21:00+17wsw388927 1.6 1006233
15 june, tue
tue1500:00+15wnw4109621 0.1 1007396
03:00+14nw3890100 0.2 1010494
06:00+14nnw358598 0.0 1011571
09:00+17nnw24521 0.1 10121355
12:00+22n2327100 0.0 10122042
15:00+23wnw0226100 0.0 10112152
18:00+22ssw233154 0.0 10101213
21:00+16sse2249100 0.0 101039
16 june, wed
wed1600:00+14sse3106063 0.0 1009214
03:00+14sse311645 0.0 1008257
06:00+20s475099 0.0 1007422
09:00+25ssw574698 0.0 10051548
12:00+19ssw398163 0.8 1005676
15:00+19wsw4968100 1.0 1005952
18:00+17nw2485100 0.7 1003225
21:00+14nnw51093100 3.6 1003765
17 june, thu
thu1700:00+9n61396100 12.7 1005941
03:00+6n51194100 24.5 1008992
06:00+6nnw6128996 1.1 1010853
09:00+11nnw59507 1.1 10121430
12:00+15nnw58345 0.0 10131952
15:00+16nnw57295 0.0 10142206
18:00+16n26345 0.0 10152440
21:00+11w115197 0.0 101610
18 june, fri
fri1800:00+9wnw225773 0.0 101635
03:00+10wnw2764100 0.0 1017209
06:00+13nnw35535 0.0 1017664
09:00+15nw3442100 0.0 10171758
12:00+18wnw453292 0.0 10162368
15:00+15w675489 0.0 10161328
18:00+12w367337 0.0 1016565
21:00+13wnw1475100 0.0 1016180